OSCAR 25

Last updated on Sat Sep 05 2026 00:03:34 GMT+0000 (Coordinated Universal Time)

1 19419U 88074A 26247.34124771 .00000080 00000+0 12226-3 0 9994 2 19419 90.0469 21.2795 0095406 207.4594 180.9950 13.42668500862042
UTC large
Height (km)
Speed (km/s)
/
Latitude / Longitude
Inclination (degrees)
Orbital Period (minutes)
Azimuth
Elevation
Range (km)
Doppler Factor

Next 0 passes for location: London (51.5072 / 0.1276)

No passes found over London.
OSCAR 25